Weather in Marikina

Philippines     14°37′58″N   121°05′54″E
temp.,
°C
wind,
m/s
gust,
m/s
humid.,
%
clouds,
%
prec.,
mm/h
press.,
hPa
HPBL,
m
6 march, sat
sat623:00+25e23730 0.0 1015243
02:00+24e22770 0.0 1014187
05:00+23ene227912 0.0 1015139
08:00+26ene226737 0.0 1016432
11:00+31e244588 0.0 10161468
14:00+33e244149 0.0 10141706
17:00+31ene444928 0.0 1013997
20:00+26e356817 0.0 1014240
7 march, sun
sun723:00+25e23724 0.0 1015185
02:00+23nne227936 0.0 1013175
05:00+23ene1278100 0.0 1014188
08:00+26ne246898 0.0 1016562
11:00+30ene4648100 0.0 10161363
14:00+32ne564351 0.0 10131651
17:00+29ene574914 0.0 1012987
20:00+25e47689 0.0 1014529
8 march, mon
mon823:00+24e34720 0.0 1015374
02:00+23ene24760 0.0 1014319
05:00+23ene247771 0.0 1013234
08:00+27ene376383 0.0 1016933
11:00+31ene575059 0.0 10151259
14:00+31ene575029 0.0 10131201
17:00+29ene57560 0.0 1012889
20:00+26e376632 0.0 1014647
9 march, tue
tue923:00+25ese136934 0.0 1015531
02:00+24ne137333 0.0 1014409
05:00+24e1375100 0.0 1014389
08:00+26nw0268100 0.0 1016543
11:00+30ene565064 0.0 10161276
14:00+31ene564645 0.0 10131263
17:00+30ne46530 0.0 10121098
20:00+25e47680 0.0 1015621
10 march, wed
wed1023:00+24ene37720 0.0 1016549
02:00+24ne26730 0.0 1014631
05:00+24ne39730 0.0 1014630
08:00+26ene611610 0.0 10161334
11:00+30ne710507 0.0 10161570
14:00+31ene711477 0.0 10121441
17:00+29ene711530 0.0 10121305
20:00+25ene512667 0.0 10151038